Location: Unspecified
(42.2600°N, 0.0000°E)
Time: 08:26:43
(UTC+00:00)

ISS - Pass Details

Date: 02 June 2019
Orbit: 407 x 419 km, 51.6° (Epoch: 26 June)

Event Time Altitude Azimuth Distance (km) Brightness Sun altitude
Rises 21:11:38 0° 302° (WNW) 2,357 1.5 -14.9°
Reaches altitude 10° 21:13:45 10° 300° (WNW) 1,493 0.2 -15.2°
Maximum altitude 21:17:04 66° 217° (SW) 457 -3.7 -15.6°
Enters shadow 21:18:08 38° 149° (SSE) 647 -3.3 -15.7°
